Language selection

Features

My Weather Profile Weather Topics  | 

Hudson - Hudson Bay: Past 24 Hour Conditions

 

Aupaluk Airport

04:00 PM EST 12 December 2019
Disclaimer

This table is a summary of hourly weather conditions for the past 24 hours.
Please note that these observations might not always be representative of weather conditions over their associated marine area.

Date / Time
(EST)
Wind(knots) Conditions Visibility(km) Pressure(kPa) Air tempC) Relative humidity(%) Dew pointC) Wind Chill
12 December 2019
16:00 WSW 16 gust 22 Drifting Snow 24 101.3 -24 70 -28 -37
15:00 WSW 18 gust 28 Drifting Snow 24 101.3 -23 75 -26 -36
14:00 W 17 gust 26 Drifting Snow 24 101.2 -22 71 -26 -35
13:00 W 16 gust 27 Drifting Snow 24 101.2 -22 72 -25 -35
12:00 W 18 gust 30 Drifting Snow 24 101.1 -21 70 -25 -34
11:00 W 18 gust 25 Drifting Snow 19 101.1 -20 74 -23 -33
10:00 W 19 gust 26 Drifting Snow 24 101.0 -20 74 -24 -33
9:00 W 18 gust 29 N/A N/A 101.0 -18 72 -22 -31
8:00 W 23 gust 32 N/A N/A 100.9 -18 71 -22 -32
7:00 W 24 gust 33 N/A N/A 100.8 -18 72 -22 -32
6:00 W 22 gust 33 N/A N/A 100.8 -18 72 -22 -32
5:00 W 22 gust 33 N/A N/A 100.7 -18 72 -22 -31
4:00 W 24 gust 33 N/A N/A 100.7 -17 73 -21 -31
3:00 W 25 gust 32 N/A N/A 100.6 -17 73 -21 -31
2:00 W 22 gust 32 N/A N/A 100.6 -17 77 -20 -31
1:00 W 23 gust 32 N/A N/A 100.5 -17 77 -20 -30
0:00 W 24 gust 32 N/A N/A 100.5 -17 73 -21 -31
11 December 2019
23:00 W 19 gust 35 N/A N/A 100.5 -18 72 -22 -31
22:00 WSW 16 gust 22 N/A N/A 100.5 -20 73 -24 -32
21:00 SW 18 N/A N/A 100.5 -22 73 -25 -35
20:00 WSW 22 gust 29 N/A N/A 100.5 -21 72 -25 -35
19:00 WSW 23 gust 30 N/A N/A 100.4 -21 70 -25 -36
18:00 WSW 24 gust 31 N/A N/A 100.4 -22 71 -26 -37
17:00 WSW 16 gust 26 Drifting Snow 24 100.4 -22 72 -25 -35
16:00 WSW 18 gust 27 Drifting Snow 24 100.3 -21 71 -25 -35

Zoom-in to make a selection

Map of Hudson - Hudson Bay marine weather areas Arviat Airport Baker Lake Airport Chesterfield Inlet Airport Coral Harbour Airport Rankin Inlet Airport Sanikiluaq Airport Whale Cove Airport Cape Dorset Airport Iqaluit Airport Wager Bay Kimmirut Airport Churchill Airport Fort Severn Airport Peawanuck Airport Moosonee Airport Eastmain Airport La Grande Rivière Airport Waskaganish Airport Wemindji Airport Akulivik Airport Inukjuak Airport Ivujivik Airport Kuujjuarapik Airport Puvirnituq Airport Umiujaq Airport Aupaluk Airport Kangiqsujuaq Airport Kangirsuk Airport Kangiqsualujjuaq Airport Kuujjuaq Airport Quaqtaq Airport Salluit Airport Tasiujaq Airport Cape Kakkiviak
Legend:
buoy Buoy
land station Land Station

Hudson - Hudson Bay Area

Another Region

What we are doing

Date modified: